Current Weather Conditions by Major Hwy


I-84 West to East [Columbia River Gorge] 100 AM PDT TUE OCT 20 2020 ELEVA CITY SKY/WX TMP DP RH WIND PRES REMARKS 10 ASTORIA, OR LGT RAIN 49 48 97 SE3 30.24F 20 KELSO MOCLDY 50 48 93 CALM 30.26R 40 PORTLAND, OR PTCLDY 50 46 86 CALM 30.26R 30 TROUTDALE, OR CLOUDY 54 47 77 CALM 30.25S 240 THE DALLES, OR MOCLDY 57 41 55 W20 30.18R 620 HERMISTON, OR MOCLDY 55 43 63 N5 30.13R 1,480 PENDLETON, OR MOCLDY 50 44 80 W14 30.14R 2,710 LA GRANDE CLOUDY 53 41 63 NW8 30.14R 3,370 BAKER CITY MOCLDY 47 36 65 S3 30.11R 2,190 ONTARIO MOCLDY 51 37 58 W5 30.05R
I-90 West to East 100 AM PDT TUE OCT 20 2020 ELEVA CITY SKY/WX TMP DP RH WIND PRES REMARKS 30 SEATAC AIRPORT CLOUDY 51 49 92 E7 30.23R 1,730 ELLENSBURG MOCLDY 48 35 60 NW13 30.14R 1,200 MOSES LAKE CLEAR 52 33 48 W8 30.11R 1,880 SPOKANE GEIGER PTCLDY 41 31 67 W10 30.05R
I-82 North West to South East 100 AM PDT TUE OCT 20 2020 ELEVA CITY SKY/WX TMP DP RH WIND PRES REMARKS 1,730 ELLENSBURG MOCLDY 48 35 60 NW13 30.14R 1,050 YAKIMA TC PTSUNNY 50 37 60 E7 30.12R 720 360 PASCO MOCLDY 52 41 66 CALM 30.14R 620 HERMISTON, OR MOCLDY 55 43 63 N5 30.13R
Hwy97 North to South 100 AM PDT TUE OCT 20 2020 ELEVA CITY SKY/WX TMP DP RH WIND PRES REMARKS 850 OMAK PTCLDY 48 34 58 NW13 30.11R 630 WENATCHEE PTCLDY 49 34 56 CALM 30.12R 1,730 ELLENSBURG MOCLDY 48 35 60 NW13 30.14R 1,050 YAKIMA TC PTSUNNY 50 37 60 E7 30.12R 1,640 GOLDENDALE* MOCLDY 57 41 55 W20 30.18R *From Dallesport Airport Elev 240 3,080 REDMOND MOCLDY 41 34 76 S3 30.17S 4,100 KLAMATH FALLS CLEAR 38 31 76 CALM 30.20S
I-5 North to South 100 AM PDT TUE OCT 20 2020 ELEVA CITY SKY/WX TMP DP RH WIND PRES REMARKS 150 BELLINGHAM PTCLDY 49 45 86 S6 30.20S 100 ARLINGTON CLOUDY 47 46 97 SW3 30.23S 610 EVERETT PTCLDY 47 43 86 CALM 30.23S 30 SEATAC AIRPORT CLOUDY 51 49 92 E7 30.23R 200 OLYMPIA MOCLDY 46 44 93 SW6 30.23S 20 KELSO MOCLDY 50 48 93 CALM 30.26R 100 VANCOUVER PTCLDY 48 42 80 CALM 30.25R 40 PORTLAND PTCLDY 50 46 86 CALM 30.26R 200 SALEM MOCLDY 52 46 80 CALM 30.25R 360 EUGENE CLOUDY 54 51 90 NW6 30.25R 510 ROSEBURG CLEAR 51 48 89 CALM 30.23R 1,300 MEDFORD CLEAR 56 41 57 S3 30.18S
Data from:
http://www.wrh.noaa.gov/sew/get.php?pil=RWR&sid=OR&version=0&format=printer
http://www.wrh.noaa.gov/sew/get.php?pil=RWR&sid=WA&version=0&format=printer

Current Observations

Washington State Current Weather Observations   …  Oregon State Current Weather Observation



48 Hour Forecast

Seattle  …  Vancouver  …  Portland
————————————————————————————————————————
Bend  …  Spokane  …  Richland  …  Pendleton  …  Blue Mountains I-84  …  Yakima
————————————————————————————————————————
Goldendale, Washington Higher Elevations  …  Dallesport Airport - Goldendale  …  Bingen - White Salmon - Hood River  …  Index


Top of Page